Location: Monteux
(44.0348°N, 4.9972°E)
Time: 05:59:40
(UTC+00:00)

Cosmos 2341 Rocket - Pass Details

Date: 29 April 2021
Orbit: 969 x 1003 km, 82.9° (Epoch: 11 May)

Event Time Altitude Azimuth Distance (km) Brightness Sun altitude
Rises 00:29:02 0° 345° (NNW) 3,728 7.9 -30.3°
Reaches altitude 10° 00:31:41 10° 339° (NNW) 2,778 7.0 -30.2°
Enters shadow 00:37:03 41° 284° (WNW) 1,421 4.7 -29.9°
